Погода в Сьюдад-Гуаяна

Венесуэла     8°19′55″N   62°41′31″W
темп.,
°C
ветер,
м/с
пор.,
м/с
влажн.,
%
обл.,
%
осадки,
мм/ч
давл.,
гПа
погр.,
м
15 апреля, чт
чт1523:00+27св3570100 0.0 1012403
02:00+26св2476100 0.0 1010295
05:00+25всв2380100 0.0 1011240
08:00+28в236547 0.0 1013645
11:00+34ссв234122 0.0 10121950
14:00+34с2336100 0.0 10081811
17:00+33св464094 0.0 10071390
20:00+28в48635 0.7 1011661
16 апреля, пт
пт1623:00+26всв38735 0.0 1012673
02:00+25в277733 0.0 1011523
05:00+24всв258071 0.0 1011382
08:00+27в366799 0.0 1013982
11:00+34в47406 0.0 10122168
14:00+37в4626100 0.0 10073251
17:00+36в553093 0.0 10062728
20:00+30всв495526 0.0 1010829
17 апреля, сб
сб1723:00+26всв410699 0.0 1012644
02:00+25в39685 0.0 1012749
05:00+24всв27715 0.0 1012440
08:00+28в49545 0.0 10141315
11:00+34в573515 0.0 10132373
14:00+37всв5626100 0.0 10093182
17:00+34всв6637100 0.0 10091992
20:00+28всв595557 0.0 1012748
18 апреля, вс
вс1823:00+25всв5117235 0.0 1014699
02:00+25всв3107799 0.0 1014743
05:00+23всв3782100 0.0 1014475
08:00+27всв376682 0.0 10161037
11:00+31всв4646100 0.1 10152025
14:00+33св7739100 0.1 10111869
17:00+32всв684390 0.0 10111375
20:00+27всв5115864 0.0 1013709
19 апреля, пн
пн1923:00+25всв4116767 0.0 1015743
02:00+24всв397698 0.0 1014548
05:00+23всв2783100 0.0 1014374
08:00+26всв4866100 0.0 1015930
11:00+33всв4732100 0.0 10142429
14:00+35св7736100 0.0 10112348
17:00+32всв574089 0.0 10102035
20:00+28всв51054100 0.0 1013824